Location: Beau Repaire
(50.6144°N, 4.0551°E)
Time: 20:31:44
(UTC+00:00)

Cosmos 44 Rocket - Pass Details

Date: 15 May 2026
Orbit: 631 x 746 km, 65.1° (Epoch: 7 June)

Event Time Altitude Azimuth Distance (km) Brightness Sun altitude
Rises 19:57:36 0° 236° (SW) 3,122 6.9 -5.0°
Reaches altitude 10° 19:59:59 10° 241° (WSW) 2,220 6.2 -5.3°
Maximum altitude 20:04:57 52° 318° (NW) 919 4.5 -5.9°
Drops below altitude 10° 20:10:03 10° 35° (NE) 2,269 6.0 -6.5°
Sets 20:12:31 0° 40° (NE) 3,199 6.7 -6.8°
